Вернуться в каталог

CHECKMATE 5

АктивенВоенныеPO
NORAD 56163·PAYLOAD·🇺🇸 United States

Запущен Apr 2, 2023 с Vandenberg Space Force Base

Loading…

Ближайшие Пролёты (ближайшие 24 часа)

TLE

СвежийSource: Space-Track

Эпоха: Sep 14, 2026, 11:39 UTC

1 56163U 23050B   26257.48599424  .00000087  00000-0  67090-4 0  9999
2 56163  81.0049 345.8980 0007430  82.5778 277.6222 13.84995888174523

Отслеживайте CHECKMATE 5 в реальном времени с AllMySat

Download on the App Store